Change the Weather History Date:

Tuesday, December 6, 2011

  Actual Average Record
Temperature  
Mean Temperature 16 °F -  
Max Temperature 25 °F 43 °F 64 °F (1981)
Min Temperature 7 °F 21 °F -6 °F (1972)
Degree Days  
Heating Degree Days 49    
Moisture  
Dew Point 10 °F    
Average Humidity 75    
Maximum Humidity 88    
Minimum Humidity 53    
Precipitation  
Precipitation 0.00 in - - ()
Sea Level Pressure  
Sea Level Pressure 30.39 in    
Wind  
Wind Speed 8 mph (West)    
Max Wind Speed 15 mph    
Max Gust Speed 16 mph    
Visibility 10 miles    
Events      
Averages and records for this station are not official NWS values.
T = Trace of Precipitation, MM = Missing Value Source: NWS Daily Summary

Daily Weather History Graph

Daily Weather History Graph

Search for Another Location

Airport or City:

Trip Planner

Search our weather history database for the weather conditions in past years. The results will help you decide how hot, cold, wet, or windy it might be!

Date:

Astronomy

Dec. 06, 2011 Rise Set
Actual Time 7:39 AM CST 5:13 PM CST
Civil Twilight 7:09 AM CST 5:42 PM CST
Nautical Twilight 6:36 AM CST 6:15 PM CST
Astronomical Twilight 6:04 AM CST 6:48 PM CST
Moon 2:40 PM CST (12/6) 4:00 AM CST (12/6)
Length of Visible Light 10h 33m
Length of Day
9h 33m
Waxing Gibbous, 87% of the Moon is Illuminated
Dec 6
Waxing Gibbous
Dec 10
Full
Dec 17
Last Quarter
Dec 24
New
Jan 1
First Quarter

Hourly Weather History & Observations

Time (CST) Temp. Windchill Dew Point Humidity Pressure Visibility Wind Dir Wind Speed Gust Speed Precip Events Conditions
12:53 AM 15.1 °F - 10.0 °F 80% 30.54 in 10.0 mi North - - N/A   Overcast
1:53 AM 15.8 °F - 8.6 °F 73% 30.42 in 10.0 mi North - - N/A   Overcast
2:53 AM 14.0 °F - 9.0 °F 80% 30.51 in 10.0 mi North - - N/A   Overcast
3:53 AM 10.9 °F - 7.0 °F 84% 30.50 in 10.0 mi North - - N/A   Clear
4:53 AM 10.9 °F - 8.1 °F 88% 30.48 in 10.0 mi North - - N/A   Scattered Clouds
5:53 AM 9.0 °F - 6.1 °F 88% 30.47 in 10.0 mi North - - N/A   Clear
6:53 AM 7.0 °F - 3.9 °F 87% 30.48 in 10.0 mi North - - N/A   Clear
7:53 AM 7.0 °F -1.7 °F 3.9 °F 87% 30.48 in 9.0 mi WNW 4.6 mph - N/A   Clear
8:53 AM 10.9 °F 4.7 °F 7.0 °F 84% 30.48 in 9.0 mi West 3.5 mph - N/A   Clear
9:53 AM 14.0 °F 8.2 °F 9.0 °F 80% 30.47 in 10.0 mi Variable 3.5 mph - N/A   Clear
10:53 AM 19.0 °F 9.0 °F 10.0 °F 68% 30.45 in 10.0 mi NNW 8.1 mph - N/A   Clear
11:53 AM 19.9 °F 10.1 °F 10.9 °F 68% 30.41 in 10.0 mi West 8.1 mph - N/A   Clear
12:53 PM 21.9 °F 10.4 °F 10.0 °F 60% 30.38 in 10.0 mi West 11.5 mph - N/A   Clear
1:53 PM 24.1 °F 12.0 °F 10.9 °F 57% 30.34 in 10.0 mi West 13.8 mph - N/A   Clear
2:53 PM 25.0 °F 16.3 °F 10.9 °F 55% 30.32 in 10.0 mi West 8.1 mph 16.1 mph N/A   Clear
3:53 PM 24.1 °F 12.5 °F 9.0 °F 53% 30.31 in 10.0 mi West 12.7 mph - N/A   Clear
4:53 PM 23.0 °F 12.4 °F 12.0 °F 63% 30.30 in 10.0 mi West 10.4 mph - N/A   Clear
5:53 PM 21.9 °F 11.0 °F 14.0 °F 72% 30.30 in 10.0 mi West 10.4 mph - N/A   Clear
6:53 PM 19.9 °F 9.3 °F 14.0 °F 78% 30.31 in 10.0 mi West 9.2 mph - N/A   Clear
7:53 PM 16.0 °F 6.3 °F 12.0 °F 84% 30.31 in 10.0 mi SW 6.9 mph - N/A   Clear
8:53 PM 17.1 °F 3.6 °F 12.0 °F 81% 30.31 in 10.0 mi WSW 12.7 mph - N/A   Clear
9:53 PM 16.0 °F 2.3 °F 10.9 °F 81% 30.30 in 10.0 mi SW 12.7 mph - N/A   Clear
10:53 PM 15.8 °F 1.4 °F 10.4 °F 79% 30.18 in 10.0 mi SW 13.8 mph - N/A   Clear
11:53 PM 16.0 °F 1.1 °F 10.9 °F 81% 30.27 in 10.0 mi WSW 15.0 mph - N/A   Clear